Back to catalog

FENGYUN 1C DEB

AliveSSO
NORAD 30806·DEBRIS·🇨🇳 China

Launched May 10, 1999 from Taiyuan Satellite Launch Center

Loading…

Next Passes (next 24 hours)

TLE

FreshSource: Space-Track

Epoch: Sep 14, 2026, 12:22 UTC

1 30806U 99025AUQ 26257.51533529  .00000505  00000-0  47166-3 0  9994
2 30806  99.0194 272.6139 0268948 124.2049  27.3732 13.70927520974730

Track FENGYUN 1C DEB in real time with AllMySat

Download on the App Store